Location: Aldenham
(51.6667°N, 0.3500°W)
Time: 17:07:43
(UTC+00:00)

Vanguard 2 Rocket - Pass Details

Date: 23 February 2026
Orbit: 553 x 3286 km, 32.9° (Epoch: 11 March)

Event Time Altitude Azimuth Distance (km) Brightness Sun altitude
Rises 14:44:28 0° 262° (W) 7,195 12.2 20.7°
Reaches altitude 10° 14:50:20 10° 254° (WSW) 5,985 12.2 20.1°
Maximum altitude 15:04:30 31° 202° (SSW) 3,632 11.5 18.6°
Drops below altitude 10° 15:14:22 10° 146° (SSE) 4,129 10.4 17.5°
Sets 15:17:34 0° 136° (SE) 4,760 10.6 17.2°
